Change the Weather History Date:

Thursday, November 3, 2011

  Actual Average Record
Temperature  
Mean Temperature 25 °F 44 °F  
Max Temperature 39 °F 58 °F 79 °F (1915)
Min Temperature 10 °F 30 °F 4 °F (1936)
Degree Days  
Heating Degree Days 40 21  
Month to date heating degree days 111 62  
Since 1 July heating degree days 606 643  
Cooling Degree Days 0 0  
Month to date cooling degree days 0 0  
Year to date cooling degree days 964 769  
Moisture  
Dew Point 16 °F    
Average Humidity 64    
Maximum Humidity 76    
Minimum Humidity 52    
Precipitation  
Precipitation 0.00 in 0.03 in 0.62 in (1946)
Month to date precipitation 0.47 0.09  
Year to date precipitation 16.53 13.43  
Snow  
Snow 0.00 in - - ()
Month to date snowfall 4.5  
Since 1 July snowfall 13  
Since 1 September snowfall 13  
Snow Depth 3.00 in    
Sea Level Pressure  
Sea Level Pressure 30.21 in    
Wind  
Wind Speed 8 mph (SSW)    
Max Wind Speed 17 mph    
Max Gust Speed 21 mph    
Visibility 10 miles    
Events      
T = Trace of Precipitation, MM = Missing Value Source: NWS Daily Summary

Daily Weather History Graph

Daily Weather History Graph

Search for Another Location

Airport or City:

Trip Planner

Search our weather history database for the weather conditions in past years. The results will help you decide how hot, cold, wet, or windy it might be!

Date:

Astronomy

Nov. 03, 2011 Rise Set
Actual Time 7:29 AM MDT 5:54 PM MDT
Civil Twilight 7:01 AM MDT 6:22 PM MDT
Nautical Twilight 6:29 AM MDT 6:54 PM MDT
Astronomical Twilight 5:57 AM MDT 7:25 PM MDT
Moon 2:18 PM MDT 12:44 AM MDT
Length of Visible Light 11h 21m
Length of Day
10h 24m
First Quarter, 61% of the Moon is Illuminated
Nov 3
First Quarter
Nov 10
Full
Nov 18
Last Quarter
Nov 24
New
Dec 2
First Quarter

Hourly Weather History & Observations

Time (MDT) Temp. Windchill Dew Point Humidity Pressure Visibility Wind Dir Wind Speed Gust Speed Precip Events Conditions
12:53 AM 10.9 °F -1.8 °F 5.0 °F 77% 30.50 in 10.0 mi South 9.2 mph - N/A   Clear
1:53 AM 19.9 °F 5.7 °F 12.9 °F 74% 30.43 in 10.0 mi SSW 16.1 mph - N/A   Clear
2:53 AM 21.0 °F 7.6 °F 12.0 °F 68% 30.41 in 10.0 mi SSW 15.0 mph - N/A   Clear
3:53 AM 21.0 °F 9.3 °F 10.9 °F 65% 30.40 in 10.0 mi SW 11.5 mph - N/A   Clear
4:53 AM 19.9 °F 7.9 °F 10.0 °F 65% 30.39 in 10.0 mi SSW 11.5 mph - N/A   Clear
5:53 AM 23.0 °F 11.1 °F 10.0 °F 58% 30.37 in 10.0 mi SW 12.7 mph - N/A   Clear
6:53 AM 21.2 °F 9.5 °F 8.6 °F 58% 30.24 in 10.0 mi SSW 11.5 mph - N/A   Clear
7:53 AM 19.9 °F 7.9 °F 8.1 °F 60% 30.39 in 10.0 mi SSW 11.5 mph - N/A   Clear
8:53 AM 18.0 °F 4.8 °F 8.1 °F 65% 30.39 in 10.0 mi SSE 12.7 mph - N/A   Clear
9:53 AM 23.0 °F 13.1 °F 12.0 °F 63% 30.33 in 10.0 mi South 9.2 mph - N/A   Partly Cloudy
10:53 AM 28.9 °F 22.8 °F 15.1 °F 56% 30.27 in 10.0 mi South 5.8 mph - N/A   Partly Cloudy
11:53 AM 36.0 °F - 19.0 °F 50% 30.22 in 10.0 mi Calm Calm - N/A   Partly Cloudy
12:53 PM 37.0 °F 33.3 °F 23.0 °F 57% 30.20 in 10.0 mi ENE 4.6 mph - N/A   Partly Cloudy
1:53 PM 34.0 °F 27.2 °F 23.0 °F 64% 30.14 in 10.0 mi NE 8.1 mph - N/A   Partly Cloudy
2:53 PM 34.0 °F 28.0 °F 21.9 °F 61% 30.10 in 10.0 mi NE 6.9 mph - N/A   Partly Cloudy
3:53 PM 33.8 °F 29.6 °F 21.2 °F 60% 30.02 in 10.0 mi NE 4.6 mph - N/A   Partly Cloudy
4:53 PM 33.8 °F 30.8 °F 21.2 °F 60% 30.02 in 10.0 mi NNE 3.5 mph - N/A   Partly Cloudy
5:53 PM 28.4 °F 24.6 °F 19.4 °F 69% 30.00 in 9.0 mi North 3.5 mph - N/A   Partly Cloudy
6:53 PM 27.0 °F 23.0 °F 19.0 °F 72% 30.09 in 10.0 mi SSW 3.5 mph - N/A   Scattered Clouds
7:53 PM 28.0 °F 22.8 °F 19.9 °F 72% 30.08 in 10.0 mi SW 4.6 mph - N/A   Scattered Clouds
8:53 PM 27.0 °F 19.5 °F 19.9 °F 75% 30.08 in 9.0 mi SW 6.9 mph - N/A   Scattered Clouds
9:53 PM 27.0 °F 19.5 °F 19.0 °F 72% 30.05 in 10.0 mi WSW 6.9 mph - N/A   Scattered Clouds
10:53 PM 26.1 °F 19.4 °F 18.0 °F 71% 30.01 in 10.0 mi SW 5.8 mph - N/A   Scattered Clouds
11:53 PM 26.1 °F 20.5 °F 17.1 °F 69% 29.95 in 10.0 mi SW 4.6 mph - N/A   Partly Cloudy